📊 Raw Sensor Data
Showing records 45576 to 45600 of 85,055 total
| ID | Distance (ft) | Battery V | Battery A | Int Temp (°F) | Int Humid (%) | Ext Temp (°F) | Solar V | RSSI | SNR | Time Stamp |
|---|---|---|---|---|---|---|---|---|---|---|
| 39492 | 15.8 | 4.01 | 0 | 89 | 42 | 81 | 5.10 | -72 | 8 | 05/02/2025 04:00 PM |
| 39491 | 15.9 | 4.01 | 0 | 88 | 42 | 80 | 5.10 | -74 | 8 | 05/02/2025 03:45 PM |
| 39490 | 15.8 | 4.01 | 0 | 88 | 41 | 80 | 5.10 | -72 | 8 | 05/02/2025 03:30 PM |
| 39489 | 15.8 | 4.01 | 0 | 87 | 41 | 79 | 5.10 | -73 | 8 | 05/02/2025 03:15 PM |
| 39488 | 15.8 | 4.01 | 0 | 86 | 40 | 79 | 5.10 | -75 | 8 | 05/02/2025 03:00 PM |
| 39487 | 15.8 | 4.01 | 0 | 86 | 40 | 78 | 5.10 | -73 | 8 | 05/02/2025 02:45 PM |
| 39486 | 15.8 | 4.01 | 5 | 85 | 40 | 79 | 5.10 | -72 | 8 | 05/02/2025 02:30 PM |
| 39485 | -- | 4.01 | 0 | 84 | 39 | 77 | 5.10 | -72 | 9 | 05/02/2025 02:15 PM |
| 39484 | -- | 4.01 | 0 | 83 | 39 | 76 | 5.10 | -72 | 8 | 05/02/2025 02:00 PM |
| 39483 | 15.8 | 4.01 | 0 | 81 | 39 | 75 | 5.10 | -74 | 7 | 05/02/2025 01:45 PM |
| 39482 | 15.8 | 4.01 | 0 | 80 | 39 | 74 | 5.10 | -77 | 7 | 05/02/2025 01:30 PM |
| 39481 | 15.8 | 4.08 | 5 | 79 | 40 | 74 | 5.10 | -73 | 8 | 05/02/2025 01:15 PM |
| 39480 | -- | 4.00 | 5 | 78 | 40 | 73 | 5.10 | -76 | 9 | 05/02/2025 01:00 PM |
| 39479 | -- | 4.00 | 0 | 76 | 40 | 71 | 5.10 | -75 | 8 | 05/02/2025 12:45 PM |
| 39478 | 15.8 | 4.09 | 0 | 75 | 40 | 72 | 5.10 | -76 | 7 | 05/02/2025 12:30 PM |
| 39477 | 15.8 | 4.02 | 5 | 73 | 40 | 72 | 5.10 | -77 | 8 | 05/02/2025 12:15 PM |
| 39476 | 15.9 | 4.00 | 0 | 71 | 41 | 69 | 5.10 | -75 | 7 | 05/02/2025 12:00 PM |
| 39475 | -- | 4.00 | 5 | 71 | 41 | 69 | 5.10 | -71 | 8 | 05/02/2025 11:45 AM |
| 39474 | 15.9 | 4.00 | 5 | 69 | 41 | 69 | 5.10 | -72 | 8 | 05/02/2025 11:30 AM |
| 39473 | -- | 4.00 | 5 | 69 | 41 | 70 | 5.10 | -75 | 9 | 05/02/2025 11:15 AM |
| 39472 | 15.9 | 4.00 | 0 | 68 | 41 | 69 | 5.10 | -75 | 8 | 05/02/2025 11:00 AM |
| 39471 | 15.9 | 4.11 | 0 | 67 | 41 | 67 | 5.10 | -73 | 8 | 05/02/2025 10:45 AM |
| 39470 | 15.9 | 4.00 | 5 | 66 | 41 | 68 | 5.10 | -75 | 8 | 05/02/2025 10:30 AM |
| 39469 | 15.9 | 4.00 | 5 | 64 | 41 | 66 | 5.10 | -75 | 8 | 05/02/2025 10:15 AM |
| 39468 | 15.9 | 4.13 | 5 | 63 | 41 | 65 | 5.10 | -74 | 8 | 05/02/2025 10:00 AM |